星链-36912(STARLINK-36912)

导读

STARLINK-36912(NORAD编号67961)是美国太空探索技术公司(SpaceX)Starlink星链互联网星座中的一颗V1.0版本低轨通信卫星,轨道倾角约70.003°,近地点约570.236km、远地点约573.934km,轨道周期约96.108分钟,每日绕地球运行近15圈。 作为Starlink全球卫星互联网项目的组成部分,它配备相控阵天线,可支持多终端同时通信,依托低轨布局为全球提供高速低延迟互联网接入,服务偏远地区网络覆盖,同时可为航空、军事等领域提供通信支撑。

基本信息
目录编号:
67961
目录名称:
STARLINK-36912
国际标识:
2026-038A
轨道中心:
EARTH
卫星名称:
星链-36912
卫星全名:
星链-36912(STARLINK-36912)
卫星状态:
在轨 (已飞行200 天)
发射日期:
2026-02-25 UTC
国别 :
美国 (US)
星等 :
--
该卫星已列入 空间交会检测服务 Space Conjunction Data Service (SCDS) ,当前飞行风险评估等级: 无高风险
轨道信息
数据来源 国际轨道数据 AOE轨道数据
星历时间 2026-09-13T08:37:23+0800
8小时前
查看轨道信息
2026-09-07T02:00:00+0800
6天前
查看轨道信息
半长轴 6843.655km 6843.739km
偏心率 0.0001943 0.0001428
轨道倾角 97.283° 97.285°
近地点辐角 84.298° 94.814°
升交点赤经 264.404° 258.218°
平近点角 275.848° 202.279°
近地点 464.188km 464.624km
远地点 466.848km 466.58km
周期 93.906分钟 93.907分钟
每日圈数 15.334537 15.334254
详细信息
固有亮度:
5
最大亮度:
2.5
卫星平台:
Starlink V1.0
覆盖范围:
全球
运营商:
太空探索技术公司
运营商所在国:
美国
制造商(研发单位):
太空探索技术公司
制造商所在国:
美国
使用方式:
暂无
卫星简介
Starlink 计划是 SpaceX 推出的全球卫星互联网项目,通过发射低轨道卫星,为全球尤其是偏远地区提供高速、低延迟的互联网服务。自 2019 年起,Starlink 已部署数千颗卫星,旨在缩小全球数字鸿沟,推动互联网普及。该项目还为军事、航空等行业提供通信支持,带来广泛经济效益。
2D轨道图
3D轨道图
轨道高度分析图
轨道倾角分析图
轨道综合分析图
查看轨道综合分析图
交会数据列表
事件ID 空间交会对象 最接近时刻(TCA) 交会距离 交会风险概率(CRP) 交会风险指数(CRI) 操作
CDM_260915-070206-796106-885421
2026-09-15T
07:02:22+0000
0.481 km
远距离
4.352502E-5 中风险 0.68
CDM_260915-061506-796106-885421
2026-09-15T
06:15:23+0000
0.490 km
远距离
4.140436E-5 中风险 0.67
CDM_260913-143005-082006-796121
2026-09-13T
14:30:19+0000
2.832 km
极远距离
1.37429E-6 低风险 0.38
CDM_260915-012306-796106-946821
2026-09-15T
01:23:30+0000
2.806 km
极远距离
1.171384E-6 低风险 0.36
CDM_260915-044106-796106-885421
2026-09-15T
04:41:26+0000
2.219 km
极远距离
4.617044E-7 极低风险 0.28
CDM_260915-083606-796106-885421
2026-09-15T
08:36:20+0000
2.508 km
极远距离
3.81686E-7 极低风险 0.27
CDM_260915-052806-796106-885421
2026-09-15T
05:28:25+0000
2.987 km
极远距离
3.132833E-7 极低风险 0.25
与全量物体交会距离演化趋势
与全量物体交会风险概率演化趋势